Flag for Norway Weather past 2 weeks in Farsund, Norway

Now
56 °F

Cool.


Feels Like: 56 °F
Forecast: 54 / 59 °F
Wind: 3 mph from Northeast

Location: Lista Fyr

Current Time: Sep 1, 2015 at 10:17:27 AM

Latest Report: Sep 1, 2015 at 9:00 AM


Visibility: N/A

Pressure: 29.82 "Hg

Humidity: 89%

Dew point: 52 °F

Location of FarsundLocation

Historic Weather in Farsund — Graph

°F

Farsund temperature yesterday

Maximum temperature yesterday: 66 °F (at 3:00 PM)
Minimum temperature yesterday: 51 °F (at 6:00 AM)
Average temperature yesterday: 58 °F

Past Weeks' High & Low Weather Summary

 TemperatureHumidityPressure
High72 °F (Aug 19, 5:00 PM)100% (Aug 31, 4:00 AM)30.27 "Hg (Aug 31, 4:00 AM)
Low51 °F (Aug 31, 6:00 AM)48% (Aug 17, 4:00 PM)29.50 "Hg (Aug 25, 6:00 PM)
Average62 °F78%29.99 "Hg
* Reported Aug 17 8:00 AM — Sep 1 8:00 AM, Farsund, Weather by CustomWeather, © 2015

Note: Actual official high and low records may vary slightly from our data, if they occured in-between our weather recording intervals... More about our weather records

Advertising

Farsund weather history for previous 24 hours

 ConditionsComfort  
Time TempWeatherWind HumidityBarometerVisibility
8:00 AM
Tue, Sep 1
56 °FCool.3 mph94%29.82 "HgN/A
7:00 AM55 °FCool.6 mph94%29.83 "HgN/A
6:00 AM55 °FCool.5 mph93%29.85 "HgN/A
4:00 AM56 °FCool.3 mph92%29.86 "HgN/A
3:00 AM57 °FCool.2 mph89%29.87 "HgN/A
2:00 AM58 °FCool.2 mph84%29.88 "HgN/A
12:00 AM57 °FCool.2 mph85%29.90 "HgN/A
10:00 PM
Mon, Aug 31
57 °FCool.1 mph84%29.92 "HgN/A
9:00 PM59 °FCool.3 mph79%29.93 "HgN/A
8:00 PM60 °FOvercast.2 mph77%29.94 "Hg16 mi
7:00 PM61 °FCool.2 mph76%29.95 "HgN/A
6:00 PM61 °FCool.3 mph75%29.97 "HgN/A
5:00 PM62 °FCool.2 mph76%29.98 "HgN/A
4:00 PM62 °FCool.3 mph70%29.99 "HgN/A
3:00 PM66 °FMild.2 mph61%30.01 "HgN/A
2:00 PM66 °FPassing clouds.5 mph68%30.02 "Hg12 mi
1:00 PM65 °FMild.2 mph56%30.01 "HgN/A
12:00 PM63 °FMild.5 mph70%30.03 "HgN/A
11:00 AM62 °FFog.2 mph77%30.04 "Hg5 mi
10:00 AM60 °FCool.2 mph93%30.04 "HgN/A
Weather by CustomWeather, © 2015

See weather overviewHow to use our weather pages